This is the latest recevied weather packets stored in our database for station/object DM0MR. If no packets are shown the sender has not sent any weather packets the latest 10 day(s).
| Time | Temp. | Humidity | Pressure | Rain* | Wind** | Luminosity | Snow |
|---|---|---|---|---|---|---|---|
| 1777488088 | 11.11° C | 35% | 1018.8 hPa | 0 mm | - | - | - |
| 1777486289 | 11.67° C | 32% | 1018.4 hPa | 0 mm | - | - | - |
| 1777485389 | 12.22° C | 31% | 1018.3 hPa | 0 mm | - | - | - |
| 1777484488 | 12.22° C | 31% | 1018.1 hPa | 0 mm | - | - | - |
| 1777483588 | 12.22° C | 31% | 1018.1 hPa | 0 mm | - | - | - |
| 1777482688 | 12.78° C | 31% | 1018.1 hPa | 0 mm | - | - | - |
| 1777481788 | 12.78° C | 31% | 1017.9 hPa | 0 mm | - | - | - |
| 1777480888 | 13.33° C | 31% | 1018 hPa | 0 mm | - | - | - |
| 1777479988 | 13.33° C | 32% | 1017.9 hPa | 0 mm | - | - | - |
| 1777479089 | 13.89° C | 29% | 1017.9 hPa | 0 mm | - | - | - |
| 1777478189 | 14.44° C | 29% | 1017.8 hPa | 0 mm | - | - | - |
| 1777477288 | 13.33° C | 30% | 1017.9 hPa | 0 mm | - | - | - |
| 1777476388 | 13.33° C | 29% | 1018.1 hPa | 0 mm | - | - | - |
| 1777475488 | 13.89° C | 31% | 1017.9 hPa | 0 mm | - | - | - |
| 1777474587 | 13.89° C | 30% | 1018 hPa | 0 mm | - | - | - |
| 1777473688 | 14.44° C | 28% | 1017.9 hPa | 0 mm | - | - | - |
| 1777472788 | 15° C | 26% | 1017.8 hPa | 0 mm | - | - | - |
| 1777471888 | 15° C | 27% | 1017.8 hPa | 0 mm | - | - | - |
| 1777470988 | 15° C | 25% | 1018 hPa | 0 mm | - | - | - |
| 1777470087 | 14.44° C | 27% | 1018.1 hPa | 0 mm | - | - | - |
| 1777469189 | 14.44° C | 26% | 1017.9 hPa | 0 mm | - | - | - |
| 1777468289 | 14.44° C | 25% | 1017.8 hPa | 0 mm | - | - | - |
| 1777467387 | 15° C | 26% | 1017.9 hPa | 0 mm | - | - | - |
| 1777466488 | 15° C | 28% | 1017.9 hPa | 0 mm | - | - | - |
| 1777465587 | 15° C | 28% | 1017.9 hPa | 0 mm | - | - | - |
* Rain latest hour (hover to see other rain measurements)
** Current wind speed in m/s (hover to see current wind gust speed)